Wetbulb
60.91 61.53 61.91 61.69 61.04 60.77 60.54 60.39 60.31 60.24 60.18 60.01 59.89 59.94 60.14 60.23 60.32 60.61 60.87 61.02 61.03 61.12 61.28 61.48 61.64 61.42 60.95 60.40 60.23 59.92 59.76 59.80 59.85 59.89 59.96 60.09 60.21 60.44 60.67 60.99 61.49 61.71 61.82 61.79 61.88 62.07 62.17 62.28 62.30 62.15 62.09 62.05 61.97 61.85 61.73 61.65 61.48 61.38 61.37 61.50 61.60 61.65 61.59 61.57 61.37 61.06 60.70 60.47 60.47
60.88 61.35 61.79 61.60 61.09 60.82 60.59 60.17 59.83 59.85 59.87 59.96 59.92 59.88 59.91 59.97 59.95 60.09 60.19 60.34 60.65 60.98 61.20 61.51 61.49 61.27 60.78 60.24 60.19 59.99 59.93 59.98 60.07 60.18 60.25 60.57 60.90 61.18 61.46 61.70 61.96 62.06 62.12 62.04 62.00 62.17 62.23 62.23 62.15 62.04 61.94 61.96 61.87 61.66 61.45 61.40 61.65 61.48 61.39 61.24 61.49 61.63 61.76 61.75 61.58 61.21 60.90 60.62 60.54
60.93 61.41 61.92 61.97 61.38 60.93 60.56 60.05 59.58 59.44 59.48 59.70 59.91 59.92 59.96 59.99 59.94 59.97 60.09 60.26 60.56 60.72 60.86 60.96 61.05 60.93 60.53 60.17 60.23 60.41 60.51 60.69 60.63 60.70 60.90 61.29 61.54 61.71 61.94 62.12 62.13 62.14 62.12 62.12 62.19 62.11 62.17 62.18 62.09 61.93 61.77 61.79 61.72 61.60 61.38 60.98 61.30 61.47 61.32 61.06 61.30 61.39 61.51 61.65 61.39 61.25 61.12 61.08 60.75
61.11 61.50 61.92 61.82 61.22 60.77 60.46 60.18 59.66 59.44 59.59 59.91 60.05 60.08 60.10 60.10 60.14 60.13 60.28 60.42 60.61 60.56 60.54 60.55 60.68 60.57 60.38 60.11 60.27 60.67 61.01 61.18 61.25 61.36 61.59 61.86 61.92 62.04 62.05 62.22 62.05 61.87 61.93 62.02 61.93 61.94 62.00 62.04 61.97 61.80 61.69 61.57 61.39 61.41 61.48 61.53 61.18 61.13 61.04 60.73 60.82 60.82 60.91 61.00 61.06 61.15 61.18 61.00 60.73
61.26 61.67 61.89 61.84 61.29 60.97 60.66 60.52 60.04 60.01 60.19 60.56 60.51 60.51 60.50 60.44 60.51 60.51 60.60 60.64 60.57 60.64 60.69 60.69 60.80 60.70 60.61 60.47 60.68 61.00 61.33 61.66 61.52 61.80 62.14 62.13 62.11 62.12 62.04 61.86 61.78 61.70 61.70 61.78 61.73 61.64 61.59 61.59 61.63 61.47 61.30 61.21 61.27 61.37 61.48 61.61 61.34 60.94 60.49 59.99 59.63 59.67 59.98 60.67 60.71 60.80 60.89 60.67 60.12
61.48 61.78 61.97 61.91 61.45 61.20 60.97 60.92 60.67 60.65 60.89 61.19 61.00 60.92 60.88 61.00 61.07 61.05 61.00 60.96 61.04 61.12 61.09 60.90 60.92 60.92 60.98 61.15 61.37 61.61 61.86 62.08 62.07 62.19 62.26 62.20 62.22 61.99 61.77 61.41 61.41 61.45 61.60 61.49 61.44 61.39 61.25 61.03 60.80 60.59 60.51 60.60 60.75 60.89 60.98 61.12 60.76 60.36 59.88 59.38 59.11 59.18 59.67 60.58 60.85 60.94 60.72 60.26 59.76
61.68 61.76 61.82 61.65 61.41 61.29 61.25 61.33 61.35 61.39 61.44 61.42 61.12 61.03 61.12 61.30 61.48 61.41 61.50 61.56 61.60 61.50 61.29 61.16 61.28 61.46 61.54 61.80 61.89 62.04 62.15 62.22 62.27 62.19 62.02 61.97 61.89 61.80 61.66 61.57 61.52 61.52 61.39 61.20 60.92 60.74 60.56 60.30 60.05 59.76 59.45 59.40 59.64 59.78 59.96 60.27 59.91 59.55 59.20 58.80 58.39 58.83 59.74 60.36 60.63 60.77 60.68 60.18 59.72
61.69 61.65 61.52 61.39 61.37 61.23 61.29 61.34 61.47 61.51 61.52 61.39 61.24 61.12 61.26 61.44 61.47 61.61 61.71 61.87 61.73 61.63 61.48 61.47 61.72 61.94 62.09 62.14 62.11 62.07 62.04 61.96 61.93 61.84 61.79 61.67 61.49 61.45 61.46 61.40 61.32 61.18 61.00 60.67 60.27 59.95 59.78 59.65 59.34 59.13 58.82 58.65 58.56 58.70 58.88 59.00 58.91 58.69 58.38 57.85 57.39 57.85 58.70 59.74 59.96 60.09 60.09 59.78 59.46
61.46 61.41 61.36 61.27 61.16 61.12 61.08 61.18 61.30 61.29 61.25 61.21 61.24 61.23 61.26 61.35 61.53 61.63 61.78 61.75 61.72 61.65 61.69 61.69 61.89 62.02 62.02 61.99 61.78 61.70 61.57 61.49 61.36 61.32 61.32 61.27 61.18 61.06 61.06 61.06 60.88 60.61 60.30 59.92 59.47 59.11 58.79 58.81 58.50 58.23 58.05 57.87 57.74 57.88 57.92 58.05 58.00 57.64 57.25 56.85 56.58 56.67 57.26 58.11 58.79 59.11 59.28 59.27 59.00
61.15 61.20 61.10 61.01 60.87 60.82 60.78 60.88 61.03 61.06 61.01 60.94 60.97 61.11 61.06 60.89 61.28 61.56 61.70 61.77 61.67 61.62 61.57 61.56 61.74 61.74 61.69 61.47 61.35 61.22 61.13 61.00 60.82 60.73 60.70 60.65 60.47 60.39 60.30 60.26 59.99 59.58 59.27 59.09 58.72 58.30 57.99 58.00 57.60 57.38 57.25 57.15 57.02 56.98 57.07 57.28 57.10 56.70 56.21 55.99 55.90 55.95 56.31 56.90 57.71 58.16 58.42 58.60 58.23
61.00 61.00 60.97 60.89 60.70 60.61 60.52 60.49 60.60 60.72 60.80 60.68 60.73 60.82 60.85 60.72 61.07 61.35 61.49 61.63 61.55 61.40 61.36 61.34 61.39 61.30 61.21 61.13 60.95 60.82 60.73 60.59 60.42 60.25 60.11 59.98 59.80 59.76 59.67 59.54 59.22 58.91 58.55 58.37 58.18 57.87 57.60 57.42 56.93 56.62 56.53 56.48 56.34 56.34 56.34 56.29 56.15 55.75 55.40 55.27 55.31 55.49 55.77 56.00 56.71 57.30 57.52 57.47 56.88
60.90 60.91 60.82 60.73 60.59 60.42 60.30 60.08 60.12 60.25 60.33 60.32 60.33 60.42 60.55 60.64 60.73 60.77 60.91 61.04 61.00 60.96 61.00 61.12 61.02 60.94 60.76 60.73 60.50 60.32 60.19 60.14 60.01 59.74 59.57 59.43 59.34 59.35 59.26 59.18 58.91 58.54 58.27 58.10 58.05 57.83 57.52 57.11 56.57 56.12 55.85 55.89 56.16 56.12 55.94 55.61 55.44 55.12 54.82 54.59 54.86 55.17 55.45 55.36 55.81 56.30 56.52 56.25 55.75
60.62 60.67 60.68 60.55 60.50 60.33 60.07 59.86 59.87 59.86 59.90 59.93 60.03 60.07 60.16 60.12 60.16 60.16 60.15 60.19 60.25 60.39 60.52 60.59 60.67 60.49 60.37 60.15 59.98 59.80 59.75 59.74 59.65 59.52 59.34 59.12 59.07 59.03 59.04 58.90 58.72 58.45 58.22 58.09 58.05 57.87 57.61 57.02 56.47 56.02 55.71 55.67 55.94 55.89 55.67 55.30 55.07 54.72 54.40 54.23 54.59 54.77 54.86 54.77 55.00 55.22 55.26 55.21 54.89
60.40 60.40 60.37 60.28 60.20 60.07 59.90 59.68 59.69 59.55 59.50 59.54 59.58 59.67 59.67 59.68 59.68 59.67 59.62 59.62 59.63 59.67 59.81 59.90 59.98 59.93 59.80 59.52 59.48 59.40 59.35 59.25 59.20 59.07 58.93 58.80 58.80 58.67 58.67 58.64 58.49 58.31 58.22 58.13 57.96 57.78 57.51 57.10 56.65 56.20 55.79 55.57 55.67 55.67 55.53 55.39 55.07 54.76 54.44 54.27 54.31 54.31 54.27 54.18 54.27 54.27 54.27 54.27 53.86
60.10 60.10 60.15 60.16 59.99 59.85 59.78 59.64 59.60 59.46 59.27 59.18 59.41 59.50 59.50 59.56 59.46 59.45 59.40 59.36 59.22 59.27 59.42 59.32 59.32 59.31 59.31 59.20 59.20 59.07 58.94 58.81 58.72 58.58 58.40 58.36 58.40 58.36 58.41 58.27 58.18 58.04 57.95 57.87 57.73 57.55 57.32 57.05 56.64 56.37 56.05 55.74 55.70 55.62 55.52 55.52 55.30 55.12 54.89 54.66 54.44 54.21 53.99 53.77 53.77 53.81 53.81 53.58 52.96
59.81 59.90 60.03 59.99 59.86 59.78 59.74 59.60 59.61 59.47 59.28 59.23 59.41 59.55 59.55 59.56 59.55 59.45 59.31 59.18 59.18 59.19 59.15 59.01 59.06 59.10 59.09 58.94 58.93 58.85 58.73 58.50 58.41 58.23 58.09 58.00 58.00 58.00 58.00 57.96 57.82 57.78 57.73 57.51 57.37 57.28 57.14 56.95 56.72 56.49 56.22 55.95 55.74 55.65 55.57 55.52 55.29 55.20 55.02 55.02 54.93 54.57 54.12 53.63 53.63 53.72 53.63 53.31 52.59
59.78 59.91 60.01 59.96 59.78 59.74 59.60 59.56 59.56 59.52 59.47 59.42 59.55 59.64 59.69 59.69 59.69 59.41 59.23 59.13 59.28 59.15 59.01 58.87 58.96 58.96 58.87 58.73 58.77 58.73 58.60 58.46 58.33 58.10 58.01 57.82 57.83 57.78 57.78 57.73 57.64 57.64 57.60 57.33 57.06 56.83 56.65 56.50 56.49 56.40 56.17 55.90 55.73 55.55 55.42 55.24 55.02 54.79 54.70 54.75 54.84 54.70 54.34 53.81 53.90 53.81 53.58 53.36 52.68
59.79 59.88 59.97 59.83 59.74 59.60 59.51 59.43 59.43 59.38 59.42 59.46 59.55 59.69 59.78 59.73 59.64 59.46 59.28 59.23 59.31 59.18 58.96 58.82 58.91 58.96 58.83 58.74 58.78 58.65 58.56 58.38 58.23 58.09 58.05 57.96 57.82 57.73 57.64 57.55 57.59 57.54 57.50 57.14 56.69 56.29 55.97 55.79 55.83 55.78 55.59 55.41 55.19 55.10 54.97 54.79 54.52 54.12 53.89 53.85 53.94 53.94 53.80 53.53 53.67 53.71 53.67 53.49 52.99
59.65 59.65 59.61 59.61 59.51 59.47 59.38 59.24 59.29 59.28 59.42 59.45 59.55 59.60 59.60 59.60 59.56 59.47 59.33 59.33 59.23 59.13 59.00 58.77 58.87 58.83 58.78 58.55 58.60 58.42 58.33 58.33 58.18 58.13 58.13 58.04 57.96 57.78 57.64 57.50 57.50 57.45 57.27 56.92 56.42 55.92 55.52 55.16 55.12 55.03 54.84 54.70 54.48 54.39 54.30 54.16 53.89 53.53 53.22 53.04 52.86 52.77 52.72 52.54 52.59 52.63 52.77 52.77 52.41
59.52 59.43 59.43 59.52 59.47 59.38 59.33 59.24 59.23 59.28 59.32 59.42 59.33 59.29 59.29 59.38 59.33 59.24 59.16 59.11 59.05 59.09 59.00 58.77 58.74 58.60 58.60 58.51 58.46 58.33 58.28 58.41 58.31 58.17 58.12 58.13 57.96 57.82 57.73 57.60 57.37 57.28 57.10 56.74 56.29 55.84 55.34 55.07 54.85 54.62 54.44 54.21 53.81 53.54 53.36 53.27 52.99 52.63 52.36 52.09 51.69 51.51 51.42 51.24 50.96 50.87 50.87 50.96 50.74
57.80 57.75 57.90 58.16 58.66 59.06 59.29 59.19 59.10 59.01 58.83 58.79 58.56 58.48 58.48 58.66 58.70 58.70 58.61 58.56 58.70 58.87 58.91 58.68 58.50 58.46 58.33 58.33 58.28 58.23 58.33 58.37 58.41 58.27 58.04 57.87 57.78 57.78 57.82 57.69 57.33 57.11 56.97 56.70 56.42 56.02 55.57 55.12 54.84 54.62 54.39 54.03 53.58 53.13 52.86 52.50 52.05 51.65 51.24 50.92 50.47 50.20 50.06 49.84 49.61 49.34 49.21 49.03 48.93
54.23 54.41 54.64 54.91 55.54 56.40 57.39 58.38 58.56 58.38 58.06 57.70 57.34 57.07 56.90 56.85 56.75 56.75 56.85 57.07 57.57 57.88 58.06 58.10 58.09 58.23 58.22 58.27 58.27 58.18 58.14 58.11 58.14 58.05 57.92 57.65 57.47 57.42 57.42 57.38 57.15 56.93 56.70 56.39 56.24 55.93 55.34 54.84 54.71 54.57 54.39 54.03 53.54 53.04 52.45 52.00 51.33 50.70 50.20 49.75 49.34 49.03 48.89 48.75 48.62 48.35 48.08 47.85 47.72
52.55 52.74 52.83 52.87 52.96 53.32 54.09 55.27 56.44 56.98 56.89 56.44 55.90 55.36 54.86 54.45 54.36 54.45 54.77 55.04 55.17 55.31 55.45 55.63 55.98 56.51 57.14 57.68 57.77 57.68 57.42 57.12 57.07 56.98 56.84 56.80 56.48 56.25 56.16 56.30 56.29 56.11 55.98 55.84 55.48 55.07 54.62 54.04 53.95 53.99 53.94 53.81 53.13 52.54 51.91 51.33 50.60 49.93 49.30 48.62 48.21 47.99 47.76 47.85 47.72 47.54 47.35 47.22 47.04
51.88 52.06 52.15 52.19 51.97 51.88 51.92 52.15 52.87 53.64 54.32 54.63 54.41 53.91 53.41 52.96 52.87 53.01 53.05 53.01 52.78 52.60 52.51 52.60 52.83 53.46 54.27 55.07 55.61 55.84 55.75 55.40 55.09 54.77 54.59 54.82 54.77 54.63 54.72 55.12 55.16 55.16 55.07 54.84 54.17 53.90 53.67 53.31 53.09 53.00 53.00 52.86 52.23 51.60 51.01 50.56 50.02 49.34 48.57 47.81 47.35 47.08 46.90 46.90 46.90 46.86 46.77 46.63 46.63
51.11 51.20 51.24 51.29 51.20 51.02 50.79 50.52 50.34 50.34 50.75 51.43 52.10 52.37 52.33 52.10 52.10 52.06 51.88 51.47 51.15 50.93 50.79 50.84 51.15 51.51 52.06 52.55 53.00 53.32 53.40 53.36 53.05 52.65 52.37 52.33 52.65 52.96 53.32 53.81 53.95 53.76 53.36 52.82 52.10 52.05 52.36 52.72 52.54 52.23 51.87 51.37 50.65 50.07 49.61 49.16 48.98 48.57 48.03 47.44 46.95 46.45 46.22 46.00 46.09 46.18 46.22 46.22 46.22
50.25 50.20 50.20 50.20 50.20 50.07 49.84 49.62 49.34 49.12 49.03 49.16 49.57 50.02 50.38 50.75 50.97 50.97 50.75 50.29 50.07 50.07 50.25 50.47 50.52 50.61 50.93 51.24 51.56 51.69 51.74 51.74 51.51 51.15 50.88 50.70 50.93 51.42 51.83 52.01 51.74 51.42 51.11 50.93 51.02 51.42 51.96 52.32 52.04 51.51 50.74 49.88 49.25 48.71 48.21 47.81 47.58 47.44 47.26 46.95 46.63 46.23 45.64 45.32 45.32 45.41 45.55 45.73 45.73
49.30 49.16 49.12 49.25 49.07 48.94 48.89 48.89 48.76 48.67 48.49 48.30 48.26 48.30 48.58 49.12 49.43 49.52 49.34 49.12 49.12 49.43 49.75 49.98 49.71 49.84 50.11 50.43 50.52 50.52 50.47 50.43 50.25 50.16 49.93 49.97 49.89 49.89 49.80 49.57 49.39 49.34 49.57 50.02 50.70 51.37 51.73 51.91 51.46 50.69 49.84 48.84 48.30 47.72 47.22 46.63 46.36 46.23 46.18 46.05 45.91 45.64 45.33 44.92 44.73 44.69 44.87 44.96 45.09
48.39 48.30 48.26 48.17 47.94 47.94 47.94 47.99 47.90 47.76 47.76 47.76 47.76 47.85 47.94 48.12 48.17 48.12 48.17 48.08 48.26 48.48 48.67 48.58 48.67 48.94 49.21 49.21 49.03 48.98 49.07 49.16 49.21 49.30 49.30 49.25 48.85 48.48 48.26 48.08 48.26 48.58 49.21 50.02 50.65 51.10 51.19 51.05 50.60 50.05 49.24 48.21 47.44 46.90 46.45 45.87 45.64 45.46 45.28 45.19 45.01 44.87 44.69 44.47 44.38 44.28 44.19 44.14 44.28
47.54 47.54 47.44 47.22 47.08 47.08 47.13 47.13 47.08 47.13 47.17 47.35 47.40 47.58 47.58 47.58 47.49 47.49 47.40 47.45 47.35 47.31 47.35 47.40 47.81 47.99 47.85 47.54 47.45 47.63 47.90 48.08 48.44 48.48 48.30 48.03 47.76 47.58 47.63 47.67 48.03 48.58 49.34 50.15 50.46 50.46 50.28 50.01 49.78 49.42 48.88 47.98 47.04 46.54 46.14 45.78 45.41 45.14 44.87 44.69 44.55 44.33 44.15 44.06 43.97 43.88 43.69 43.51 43.51
46.95 46.90 46.72 46.50 46.50 46.45 46.54 46.59 46.77 46.90 47.04 47.17 47.08 47.04 46.95 46.86 46.81 46.72 46.63 46.50 46.45 46.54 46.77 47.08 47.13 46.90 46.72 46.54 46.68 46.77 46.90 47.13 47.54 47.58 47.49 47.31 47.13 47.17 47.35 47.63 48.12 48.71 49.43 50.01 50.10 49.83 49.51 49.24 48.97 48.70 48.25 47.62 46.72 46.23 45.82 45.46 45.14 44.83 44.55 44.33 44.19 43.97 43.88 43.70 43.47 43.29 43.15 43.02 42.79
46.54 46.45 46.27 46.05 45.87 45.91 46.00 46.18 46.41 46.50 46.54 46.50 46.45 46.32 46.14 45.87 45.73 45.77 45.82 45.82 45.86 46.27 46.63 46.63 46.36 46.18 46.04 46.22 46.27 46.27 46.31 46.63 46.99 47.13 47.17 47.08 47.08 47.17 47.31 47.72 48.08 48.62 49.20 49.74 49.60 49.38 49.06 48.66 48.34 47.98 47.58 47.17 46.27 45.60 45.14 44.78 44.51 44.19 44.01 43.78 43.69 43.61 43.47 43.34 43.11 42.89 42.70 42.57 42.39
46.27 46.09 45.82 45.55 45.41 45.46 45.55 45.77 45.87 45.91 45.87 45.78 45.69 45.51 45.37 45.14 45.19 45.28 45.46 45.59 45.73 45.82 45.91 45.91 45.73 45.59 45.59 45.73 45.77 45.86 46.04 46.31 46.59 46.81 46.95 46.99 46.95 47.04 47.26 47.54 47.85 48.35 48.84 49.24 49.11 48.88 48.52 48.16 47.76 47.40 46.99 46.46 45.42 44.47 43.83 43.65 43.38 43.15 43.06 43.02 43.02 42.98 42.93 42.97 42.70 42.52 42.39 42.39 42.30
46.09 45.87 45.60 45.32 45.19 45.23 45.28 45.41 45.46 45.51 45.37 45.28 45.15 45.01 44.87 44.78 44.96 45.14 45.32 45.46 45.46 45.41 45.28 45.23 45.14 45.09 45.09 45.14 45.18 45.37 45.59 45.91 46.27 46.54 46.77 46.90 46.81 46.86 46.99 47.17 47.54 47.99 48.53 48.80 48.66 48.34 47.98 47.58 47.13 46.73 46.23 45.56 44.25 43.29 42.70 42.57 42.39 42.16 41.93 41.84 41.89 41.89 42.03 42.07 42.07 42.07 42.03 42.07 42.03
46.00 45.78 45.55 45.32 45.23 45.19 45.23 45.28 45.32 45.19 45.10 44.92 44.87 44.78 44.74 44.73 44.73 44.82 44.91 45.09 45.14 45.09 45.05 45.00 44.91 44.91 44.91 45.01 45.01 45.09 45.37 45.73 45.95 46.14 46.32 46.50 46.59 46.54 46.50 46.63 47.08 47.58 48.03 48.30 48.07 47.67 47.35 46.95 46.50 46.05 45.47 44.61 43.25 42.30 41.85 41.67 41.48 41.21 40.84 40.62 40.66 40.84 41.07 41.26 41.35 41.35 41.31 41.21 41.17
45.87 45.59 45.37 45.19 45.23 45.19 45.14 45.14 45.10 44.96 44.83 44.56 44.51 44.51 44.56 44.51 44.46 44.51 44.64 44.82 44.83 44.78 44.69 44.73 44.87 44.87 44.91 45.01 45.05 45.14 45.23 45.46 45.55 45.77 46.00 46.18 46.14 46.05 45.86 45.86 46.31 46.99 47.40 47.53 47.26 47.04 46.68 46.37 45.87 45.33 44.48 43.48 42.21 41.44 41.08 40.85 40.53 40.17 39.94 39.85 39.89 39.98 40.12 40.17 40.12 40.08 40.00 39.95 39.83
45.69 45.42 45.14 44.96 44.92 44.92 44.78 44.83 44.74 44.65 44.42 44.24 44.15 44.15 44.19 44.37 44.46 44.60 44.69 44.78 44.56 44.38 44.33 44.37 44.55 44.55 44.46 44.55 44.73 44.92 45.01 44.96 45.14 45.37 45.68 45.86 45.69 45.41 45.19 45.14 45.55 46.09 46.59 46.73 46.50 46.28 46.01 45.65 45.15 44.43 43.49 42.17 41.12 40.71 40.53 40.31 40.03 39.67 39.36 39.36 39.22 39.04 38.99 38.95 38.86 38.73 38.69 38.70 38.71
45.43 45.20 44.97 44.70 44.56 44.52 44.52 44.60 44.42 44.24 44.01 43.97 43.97 44.01 44.10 44.23 44.37 44.60 44.78 44.74 44.29 44.01 43.92 43.97 43.92 43.87 43.87 43.96 44.14 44.42 44.64 44.87 44.96 45.09 45.28 45.46 45.23 44.92 44.64 44.51 44.69 45.10 45.55 45.92 45.78 45.60 45.34 44.98 44.39 43.58 42.41 40.86 40.09 39.86 39.82 39.68 39.46 39.19 38.88 38.65 38.38 38.19 38.01 38.05 37.88 37.79 37.71 37.81 38.13
45.17 44.94 44.67 44.35 44.21 44.12 44.12 44.16 44.02 43.93 43.79 43.83 43.96 44.05 44.23 44.24 44.28 44.46 44.55 44.51 44.06 43.70 43.52 43.47 43.42 43.33 43.51 43.69 43.78 44.01 44.37 44.78 44.96 45.01 44.96 45.05 44.92 44.65 44.24 43.87 43.96 44.24 44.70 45.20 45.20 45.07 44.75 44.35 43.77 42.87 41.65 40.06 39.43 39.30 39.26 39.04 38.77 38.50 38.32 37.96 37.58 37.35 37.11 37.06 36.98 37.02 37.25 37.72 38.61
44.98 44.76 44.54 44.18 43.95 43.86 43.77 43.76 43.67 43.62 43.65 43.78 43.87 43.97 44.10 44.10 44.14 44.23 44.42 44.37 44.06 43.70 43.38 43.15 43.06 43.24 43.42 43.56 43.65 43.69 43.83 44.23 44.55 44.69 44.60 44.55 44.51 44.24 43.88 43.47 43.47 43.69 44.15 44.57 44.58 44.44 44.18 43.86 43.29 42.53 41.46 39.93 39.11 38.81 38.82 38.56 38.08 37.76 37.52 37.24 36.91 36.45 36.03 35.71 35.89 36.24 36.80 37.85 39.65
44.79 44.66 44.40 44.22 43.95 43.77 43.63 43.57 43.53 43.61 43.74 43.74 43.70 43.74 43.74 43.83 43.96 44.05 44.19 44.19 43.97 43.70 43.43 43.06 43.06 43.24 43.42 43.43 43.20 43.06 43.06 43.15 43.56 43.87 44.06 44.06 44.01 43.74 43.39 43.38 43.20 43.33 43.70 44.12 44.17 44.00 43.78 43.52 42.90 42.15 41.00 39.21 38.43 38.31 38.33 38.05 37.58 37.18 36.79 36.64 36.33 35.83 35.27 34.71 34.84 35.29 36.01 37.15 39.23
44.51 44.11 43.89 43.89 43.85 43.72 43.58 43.48 43.52 43.61 43.74 43.74 43.61 43.69 43.78 43.87 43.78 43.78 43.78 43.74 43.65 43.52 43.38 43.20 43.11 43.20 43.20 43.11 42.89 42.61 42.34 42.20 42.24 42.61 43.06 43.24 43.38 43.29 43.07 43.07 42.79 42.84 43.11 43.67 43.91 43.87 43.66 43.30 42.69 41.85 40.65 38.69 37.67 37.54 37.71 37.54 37.14 36.56 36.01 35.68 35.60 35.33 34.92 34.18 34.12 34.25 34.66 35.19 36.51
MSLP
1002.53 1002.69 1002.73 1002.85 1003.05 1003.21 1003.37 1003.49 1003.65 1003.81 1004.01 1004.13 1004.33 1004.53 1004.73 1005.01 1005.29 1005.57 1005.85 1006.09 1006.29 1006.53 1006.73 1006.97 1007.17 1007.41 1007.65 1007.89 1008.13 1008.41 1008.57 1008.77 1008.93 1009.13 1009.37 1009.53 1009.57 1009.65 1009.73 1009.93 1010.09 1010.29 1010.45 1010.57 1010.69 1010.85 1011.01 1011.17 1011.37 1011.57 1011.77 1011.93 1012.05 1012.21 1012.37 1012.45 1012.49 1012.61 1012.81 1013.01 1013.17 1013.37 1013.49 1013.61 1013.77 1013.93 1014.05 1014.13 1014.29
1002.29 1002.45 1002.53 1002.69 1002.89 1003.09 1003.29 1003.45 1003.65 1003.81 1003.93 1004.05 1004.17 1004.33 1004.53 1004.73 1005.01 1005.29 1005.57 1005.77 1005.97 1006.21 1006.53 1006.85 1007.17 1007.45 1007.73 1007.89 1008.09 1008.33 1008.57 1008.73 1008.85 1009.01 1009.17 1009.37 1009.49 1009.57 1009.73 1009.85 1010.01 1010.13 1010.29 1010.45 1010.57 1010.73 1010.89 1011.05 1011.25 1011.45 1011.69 1011.89 1012.01 1012.21 1012.33 1012.37 1012.37 1012.53 1012.73 1012.97 1013.13 1013.25 1013.45 1013.69 1013.69 1013.77 1013.93 1014.05 1014.17
1002.01 1002.21 1002.37 1002.57 1002.77 1002.97 1003.17 1003.37 1003.53 1003.73 1003.85 1003.93 1004.05 1004.17 1004.37 1004.53 1004.73 1004.97 1005.17 1005.41 1005.57 1005.81 1006.13 1006.49 1006.89 1007.29 1007.65 1007.89 1008.13 1008.29 1008.49 1008.69 1008.85 1009.01 1009.13 1009.29 1009.41 1009.53 1009.65 1009.81 1009.93 1010.05 1010.17 1010.29 1010.45 1010.57 1010.73 1010.89 1011.09 1011.29 1011.57 1011.77 1011.93 1012.09 1012.25 1012.33 1012.29 1012.45 1012.65 1012.89 1013.09 1013.25 1013.37 1013.57 1013.65 1013.77 1013.89 1014.05 1014.13
1001.85 1002.01 1002.17 1002.37 1002.57 1002.77 1002.97 1003.17 1003.37 1003.53 1003.65 1003.81 1003.97 1004.13 1004.29 1004.45 1004.57 1004.73 1004.93 1005.13 1005.29 1005.49 1005.73 1006.05 1006.45 1006.85 1007.29 1007.61 1007.89 1008.13 1008.37 1008.65 1008.85 1009.01 1009.09 1009.17 1009.29 1009.45 1009.53 1009.65 1009.85 1010.01 1010.13 1010.21 1010.33 1010.49 1010.61 1010.77 1010.97 1011.17 1011.41 1011.57 1011.77 1011.93 1012.09 1012.21 1012.29 1012.45 1012.61 1012.85 1013.01 1013.21 1013.37 1013.53 1013.61 1013.73 1013.85 1014.05 1014.13
1001.65 1001.81 1001.97 1002.17 1002.37 1002.57 1002.77 1003.01 1003.21 1003.37 1003.53 1003.73 1003.89 1004.09 1004.25 1004.45 1004.57 1004.69 1004.81 1005.01 1005.13 1005.29 1005.45 1005.73 1006.01 1006.41 1006.77 1007.13 1007.45 1007.73 1008.09 1008.45 1008.73 1008.85 1008.97 1009.05 1009.17 1009.29 1009.41 1009.57 1009.73 1009.89 1010.01 1010.13 1010.25 1010.41 1010.57 1010.73 1010.89 1011.13 1011.29 1011.45 1011.61 1011.77 1011.93 1012.05 1012.21 1012.37 1012.57 1012.85 1013.01 1013.17 1013.33 1013.53 1013.65 1013.77 1013.89 1014.05 1014.13
1001.45 1001.65 1001.81 1002.01 1002.21 1002.45 1002.73 1002.93 1003.05 1003.21 1003.45 1003.61 1003.81 1004.01 1004.17 1004.37 1004.45 1004.61 1004.73 1004.85 1004.97 1005.13 1005.33 1005.61 1005.85 1006.13 1006.45 1006.81 1007.09 1007.41 1007.73 1008.09 1008.41 1008.57 1008.69 1008.85 1009.05 1009.21 1009.37 1009.57 1009.69 1009.85 1010.01 1010.13 1010.21 1010.33 1010.49 1010.69 1010.85 1011.09 1011.25 1011.41 1011.57 1011.73 1011.85 1011.97 1012.13 1012.29 1012.57 1012.85 1013.01 1013.17 1013.33 1013.53 1013.65 1013.77 1013.89 1014.05 1014.21
1001.29 1001.53 1001.73 1001.89 1002.13 1002.37 1002.65 1002.85 1003.01 1003.17 1003.37 1003.57 1003.73 1003.89 1004.05 1004.17 1004.37 1004.49 1004.61 1004.73 1004.89 1005.17 1005.37 1005.57 1005.81 1006.05 1006.29 1006.57 1006.93 1007.21 1007.53 1007.85 1008.13 1008.29 1008.49 1008.73 1008.97 1009.17 1009.33 1009.49 1009.69 1009.85 1010.01 1010.13 1010.25 1010.37 1010.49 1010.65 1010.85 1011.09 1011.29 1011.45 1011.57 1011.73 1011.85 1011.85 1011.97 1012.17 1012.45 1012.73 1013.01 1013.17 1013.33 1013.53 1013.65 1013.81 1013.93 1014.09 1014.25
1001.21 1001.45 1001.61 1001.81 1002.01 1002.29 1002.53 1002.77 1002.97 1003.17 1003.37 1003.57 1003.69 1003.81 1003.97 1004.09 1004.29 1004.41 1004.57 1004.73 1004.93 1005.17 1005.37 1005.57 1005.73 1005.93 1006.13 1006.45 1006.81 1007.13 1007.45 1007.73 1008.01 1008.25 1008.45 1008.61 1008.85 1009.09 1009.29 1009.45 1009.65 1009.85 1010.01 1010.17 1010.29 1010.45 1010.57 1010.69 1010.85 1011.01 1011.25 1011.37 1011.57 1011.69 1011.77 1011.77 1011.85 1012.05 1012.33 1012.65 1012.93 1013.17 1013.29 1013.45 1013.61 1013.77 1013.89 1014.01 1014.21
1001.17 1001.41 1001.57 1001.81 1002.01 1002.25 1002.49 1002.69 1002.85 1003.09 1003.33 1003.53 1003.65 1003.77 1003.89 1004.05 1004.21 1004.37 1004.57 1004.73 1004.93 1005.13 1005.33 1005.57 1005.73 1005.89 1006.13 1006.45 1006.77 1007.09 1007.37 1007.61 1007.89 1008.17 1008.45 1008.61 1008.81 1009.01 1009.17 1009.41 1009.61 1009.85 1010.05 1010.25 1010.37 1010.45 1010.57 1010.73 1010.85 1011.01 1011.17 1011.33 1011.53 1011.65 1011.73 1011.73 1011.81 1012.01 1012.29 1012.57 1012.85 1013.13 1013.29 1013.45 1013.61 1013.73 1013.85 1014.01 1014.17
1001.09 1001.29 1001.57 1001.77 1002.01 1002.21 1002.45 1002.73 1002.89 1003.09 1003.29 1003.53 1003.65 1003.81 1003.93 1004.09 1004.25 1004.41 1004.57 1004.77 1005.01 1005.25 1005.41 1005.57 1005.77 1006.01 1006.25 1006.53 1006.85 1007.13 1007.37 1007.61 1007.89 1008.13 1008.37 1008.57 1008.77 1008.93 1009.13 1009.33 1009.57 1009.85 1010.09 1010.29 1010.45 1010.57 1010.73 1010.85 1011.01 1011.17 1011.25 1011.37 1011.49 1011.61 1011.69 1011.69 1011.81 1012.01 1012.29 1012.57 1012.85 1013.09 1013.29 1013.45 1013.57 1013.73 1013.85 1013.97 1014.17
1000.97 1001.21 1001.45 1001.73 1001.97 1002.21 1002.45 1002.73 1003.01 1003.17 1003.37 1003.57 1003.69 1003.85 1004.01 1004.17 1004.33 1004.53 1004.69 1004.89 1005.17 1005.37 1005.53 1005.65 1005.81 1006.01 1006.29 1006.61 1006.89 1007.17 1007.37 1007.57 1007.85 1008.09 1008.33 1008.53 1008.69 1008.85 1009.01 1009.25 1009.53 1009.77 1010.01 1010.25 1010.45 1010.69 1010.85 1011.05 1011.17 1011.29 1011.41 1011.49 1011.57 1011.61 1011.65 1011.73 1011.85 1012.05 1012.29 1012.57 1012.81 1013.05 1013.29 1013.49 1013.61 1013.73 1013.81 1014.01 1014.17
1001.01 1001.21 1001.45 1001.69 1001.93 1002.21 1002.49 1002.77 1003.05 1003.29 1003.45 1003.57 1003.73 1003.85 1004.05 1004.25 1004.45 1004.61 1004.81 1005.01 1005.25 1005.45 1005.57 1005.69 1005.85 1006.05 1006.29 1006.57 1006.89 1007.17 1007.37 1007.57 1007.81 1008.01 1008.25 1008.45 1008.61 1008.81 1009.01 1009.25 1009.45 1009.73 1009.93 1010.17 1010.41 1010.65 1010.89 1011.09 1011.21 1011.33 1011.53 1011.65 1011.69 1011.69 1011.69 1011.73 1011.89 1012.09 1012.33 1012.57 1012.81 1013.05 1013.29 1013.49 1013.61 1013.73 1013.85 1014.01 1014.21
1001.05 1001.29 1001.57 1001.81 1002.05 1002.29 1002.57 1002.89 1003.17 1003.33 1003.45 1003.61 1003.73 1003.93 1004.13 1004.37 1004.53 1004.73 1004.85 1005.05 1005.25 1005.45 1005.61 1005.73 1005.85 1006.05 1006.29 1006.57 1006.85 1007.09 1007.29 1007.53 1007.73 1007.93 1008.13 1008.37 1008.57 1008.77 1009.01 1009.21 1009.45 1009.61 1009.85 1010.01 1010.25 1010.49 1010.77 1011.01 1011.21 1011.37 1011.53 1011.69 1011.77 1011.81 1011.77 1011.73 1011.85 1012.09 1012.33 1012.57 1012.85 1013.05 1013.25 1013.49 1013.65 1013.81 1013.93 1014.05 1014.25
1001.13 1001.41 1001.65 1001.89 1002.13 1002.45 1002.73 1003.01 1003.21 1003.37 1003.45 1003.57 1003.77 1003.97 1004.17 1004.45 1004.61 1004.77 1004.93 1005.09 1005.29 1005.45 1005.61 1005.73 1005.85 1006.01 1006.25 1006.49 1006.73 1006.97 1007.17 1007.41 1007.61 1007.85 1008.09 1008.29 1008.49 1008.73 1008.93 1009.17 1009.37 1009.57 1009.73 1009.89 1010.09 1010.29 1010.57 1010.89 1011.17 1011.33 1011.53 1011.69 1011.85 1011.89 1011.85 1011.77 1011.85 1012.01 1012.29 1012.57 1012.85 1013.09 1013.29 1013.53 1013.73 1013.85 1014.01 1014.13 1014.29
1001.21 1001.45 1001.73 1002.01 1002.29 1002.57 1002.85 1003.09 1003.25 1003.37 1003.49 1003.61 1003.81 1004.01 1004.21 1004.45 1004.65 1004.81 1004.93 1005.09 1005.25 1005.41 1005.53 1005.69 1005.85 1006.05 1006.29 1006.45 1006.69 1006.85 1007.09 1007.37 1007.65 1007.93 1008.13 1008.33 1008.49 1008.69 1008.89 1009.13 1009.29 1009.49 1009.69 1009.85 1010.05 1010.29 1010.49 1010.73 1011.01 1011.29 1011.49 1011.69 1011.85 1011.85 1011.85 1011.73 1011.73 1011.89 1012.13 1012.45 1012.81 1013.05 1013.29 1013.53 1013.73 1013.89 1014.01 1014.17 1014.37
1001.29 1001.57 1001.85 1002.13 1002.41 1002.65 1002.85 1003.09 1003.21 1003.37 1003.53 1003.73 1003.85 1004.05 1004.29 1004.53 1004.69 1004.81 1004.93 1005.09 1005.29 1005.45 1005.57 1005.73 1005.85 1006.13 1006.37 1006.57 1006.73 1006.89 1007.17 1007.53 1007.85 1008.13 1008.29 1008.45 1008.57 1008.73 1008.89 1009.09 1009.29 1009.53 1009.73 1009.93 1010.13 1010.29 1010.45 1010.65 1010.85 1011.17 1011.45 1011.65 1011.77 1011.77 1011.73 1011.57 1011.61 1011.77 1012.05 1012.41 1012.73 1013.05 1013.29 1013.53 1013.73 1013.89 1014.01 1014.17 1014.41
1001.45 1001.73 1001.97 1002.17 1002.37 1002.57 1002.81 1003.05 1003.17 1003.33 1003.57 1003.73 1003.93 1004.13 1004.33 1004.53 1004.65 1004.77 1004.93 1005.13 1005.33 1005.53 1005.73 1005.85 1006.01 1006.21 1006.45 1006.73 1006.85 1007.13 1007.45 1007.81 1008.05 1008.25 1008.37 1008.45 1008.65 1008.77 1008.93 1009.05 1009.25 1009.45 1009.73 1010.01 1010.21 1010.41 1010.57 1010.69 1010.85 1011.09 1011.45 1011.69 1011.73 1011.69 1011.57 1011.45 1011.53 1011.73 1012.05 1012.45 1012.73 1013.01 1013.25 1013.45 1013.65 1013.85 1014.01 1014.17 1014.33
1001.53 1001.73 1001.89 1002.05 1002.25 1002.49 1002.81 1003.01 1003.17 1003.33 1003.53 1003.69 1003.93 1004.13 1004.37 1004.49 1004.57 1004.73 1004.85 1005.05 1005.29 1005.49 1005.69 1005.89 1006.13 1006.33 1006.53 1006.77 1007.01 1007.29 1007.57 1007.85 1008.01 1008.13 1008.29 1008.41 1008.61 1008.81 1008.97 1009.09 1009.25 1009.45 1009.73 1010.01 1010.29 1010.45 1010.57 1010.73 1010.93 1011.17 1011.49 1011.69 1011.73 1011.65 1011.53 1011.45 1011.53 1011.77 1012.09 1012.45 1012.73 1013.01 1013.17 1013.33 1013.57 1013.77 1014.01 1014.13 1014.29
1001.57 1001.73 1001.85 1002.05 1002.25 1002.53 1002.81 1003.01 1003.17 1003.29 1003.45 1003.69 1004.01 1004.29 1004.45 1004.57 1004.69 1004.81 1004.97 1005.13 1005.29 1005.45 1005.65 1005.89 1006.25 1006.45 1006.65 1006.81 1007.05 1007.29 1007.49 1007.65 1007.77 1007.93 1008.13 1008.29 1008.57 1008.81 1008.97 1009.17 1009.37 1009.57 1009.81 1010.05 1010.25 1010.41 1010.57 1010.73 1011.01 1011.29 1011.45 1011.61 1011.65 1011.65 1011.57 1011.57 1011.69 1011.85 1012.13 1012.45 1012.73 1012.97 1013.17 1013.29 1013.49 1013.69 1013.85 1014.05 1014.21
1001.65 1001.81 1001.97 1002.13 1002.29 1002.57 1002.81 1002.97 1003.13 1003.25 1003.49 1003.81 1004.17 1004.45 1004.65 1004.77 1004.89 1005.01 1005.17 1005.33 1005.49 1005.61 1005.77 1006.05 1006.41 1006.65 1006.85 1006.97 1007.09 1007.25 1007.41 1007.57 1007.73 1007.85 1008.01 1008.29 1008.57 1008.77 1009.01 1009.25 1009.53 1009.73 1009.89 1010.01 1010.13 1010.29 1010.49 1010.73 1011.01 1011.21 1011.33 1011.45 1011.57 1011.61 1011.69 1011.73 1011.85 1012.05 1012.29 1012.53 1012.73 1012.93 1013.13 1013.29 1013.53 1013.73 1013.85 1014.05 1014.25
1001.89 1002.05 1002.13 1002.25 1002.41 1002.61 1002.81 1002.97 1003.09 1003.29 1003.61 1004.01 1004.29 1004.57 1004.73 1004.93 1005.09 1005.17 1005.29 1005.45 1005.57 1005.73 1005.93 1006.13 1006.45 1006.65 1006.85 1007.01 1007.17 1007.29 1007.45 1007.61 1007.77 1007.89 1008.05 1008.29 1008.53 1008.77 1009.01 1009.29 1009.57 1009.73 1009.85 1009.89 1010.05 1010.25 1010.45 1010.69 1010.89 1011.01 1011.17 1011.29 1011.45 1011.53 1011.69 1011.85 1012.05 1012.29 1012.45 1012.61 1012.81 1012.97 1013.13 1013.33 1013.57 1013.77 1013.97 1014.13 1014.33
1002.33 1002.45 1002.57 1002.65 1002.77 1002.85 1002.97 1003.13 1003.29 1003.57 1003.85 1004.17 1004.45 1004.69 1004.85 1005.01 1005.17 1005.29 1005.45 1005.57 1005.69 1005.85 1006.01 1006.17 1006.37 1006.57 1006.73 1006.89 1007.09 1007.25 1007.45 1007.61 1007.77 1007.93 1008.13 1008.37 1008.61 1008.85 1009.09 1009.33 1009.57 1009.65 1009.77 1009.89 1010.01 1010.21 1010.37 1010.53 1010.73 1010.85 1011.01 1011.17 1011.29 1011.49 1011.69 1011.89 1012.13 1012.37 1012.57 1012.73 1012.85 1013.01 1013.17 1013.37 1013.57 1013.81 1014.01 1014.25 1014.45
1002.69 1002.81 1002.97 1003.09 1003.25 1003.33 1003.41 1003.49 1003.65 1003.85 1004.05 1004.29 1004.57 1004.77 1004.97 1005.17 1005.29 1005.45 1005.57 1005.73 1005.85 1006.01 1006.13 1006.29 1006.45 1006.57 1006.69 1006.81 1006.93 1007.17 1007.37 1007.57 1007.81 1008.01 1008.21 1008.45 1008.69 1008.93 1009.17 1009.33 1009.49 1009.65 1009.73 1009.85 1010.01 1010.13 1010.29 1010.45 1010.57 1010.69 1010.85 1011.05 1011.29 1011.45 1011.69 1011.93 1012.13 1012.41 1012.61 1012.81 1012.97 1013.13 1013.29 1013.45 1013.61 1013.85 1014.09 1014.29 1014.49
1003.01 1003.17 1003.33 1003.45 1003.61 1003.77 1003.89 1004.01 1004.13 1004.21 1004.33 1004.49 1004.69 1004.85 1005.05 1005.21 1005.37 1005.49 1005.65 1005.85 1006.01 1006.17 1006.33 1006.49 1006.65 1006.73 1006.81 1006.89 1007.01 1007.17 1007.41 1007.61 1007.85 1008.05 1008.25 1008.45 1008.69 1008.89 1009.09 1009.25 1009.41 1009.57 1009.69 1009.81 1009.93 1010.05 1010.17 1010.33 1010.49 1010.61 1010.81 1011.01 1011.21 1011.45 1011.69 1011.93 1012.13 1012.37 1012.57 1012.85 1013.01 1013.25 1013.45 1013.65 1013.81 1013.93 1014.05 1014.25 1014.41
1003.49 1003.61 1003.73 1003.89 1004.05 1004.21 1004.33 1004.45 1004.61 1004.73 1004.81 1004.85 1004.93 1005.01 1005.17 1005.29 1005.45 1005.57 1005.73 1005.93 1006.13 1006.33 1006.49 1006.69 1006.81 1006.93 1007.01 1007.09 1007.21 1007.33 1007.53 1007.73 1007.89 1008.13 1008.33 1008.53 1008.69 1008.85 1009.01 1009.17 1009.29 1009.45 1009.57 1009.73 1009.85 1010.01 1010.13 1010.25 1010.41 1010.57 1010.85 1011.01 1011.29 1011.49 1011.73 1011.93 1012.13 1012.29 1012.57 1012.81 1013.05 1013.33 1013.61 1013.85 1014.01 1014.05 1014.13 1014.21 1014.29
1004.09 1004.17 1004.29 1004.45 1004.57 1004.69 1004.81 1004.93 1005.01 1005.17 1005.29 1005.33 1005.33 1005.37 1005.41 1005.45 1005.57 1005.69 1005.85 1006.05 1006.25 1006.41 1006.53 1006.73 1006.93 1007.09 1007.21 1007.29 1007.41 1007.53 1007.65 1007.81 1008.01 1008.21 1008.41 1008.57 1008.73 1008.85 1009.01 1009.17 1009.29 1009.49 1009.61 1009.73 1009.85 1010.01 1010.13 1010.29 1010.45 1010.61 1010.85 1011.05 1011.29 1011.57 1011.85 1012.05 1012.25 1012.45 1012.69 1012.89 1013.17 1013.41 1013.65 1013.93 1014.09 1014.17 1014.25 1014.29 1014.37
1004.65 1004.77 1004.89 1005.01 1005.09 1005.17 1005.29 1005.37 1005.45 1005.57 1005.65 1005.73 1005.81 1005.81 1005.81 1005.77 1005.81 1005.89 1006.01 1006.21 1006.41 1006.49 1006.57 1006.73 1007.01 1007.17 1007.33 1007.45 1007.57 1007.69 1007.85 1007.97 1008.13 1008.33 1008.49 1008.65 1008.85 1009.01 1009.17 1009.29 1009.45 1009.61 1009.73 1009.81 1009.89 1010.05 1010.21 1010.41 1010.53 1010.65 1010.85 1011.05 1011.33 1011.61 1011.89 1012.17 1012.45 1012.69 1012.85 1013.13 1013.33 1013.53 1013.69 1013.89 1014.05 1014.21 1014.33 1014.41 1014.49
1005.17 1005.29 1005.37 1005.45 1005.49 1005.57 1005.73 1005.77 1005.85 1005.97 1006.05 1006.13 1006.21 1006.21 1006.21 1006.17 1006.17 1006.21 1006.29 1006.45 1006.57 1006.65 1006.73 1006.89 1007.09 1007.29 1007.45 1007.61 1007.77 1007.85 1007.97 1008.13 1008.29 1008.49 1008.65 1008.85 1009.01 1009.17 1009.33 1009.45 1009.57 1009.73 1009.81 1009.89 1010.01 1010.13 1010.29 1010.45 1010.61 1010.77 1010.93 1011.17 1011.45 1011.73 1011.97 1012.25 1012.53 1012.77 1013.01 1013.25 1013.49 1013.69 1013.85 1014.01 1014.13 1014.21 1014.33 1014.49 1014.61
1005.69 1005.73 1005.73 1005.85 1005.97 1006.05 1006.13 1006.25 1006.33 1006.45 1006.53 1006.57 1006.57 1006.57 1006.57 1006.57 1006.57 1006.61 1006.65 1006.69 1006.77 1006.89 1007.01 1007.17 1007.33 1007.49 1007.69 1007.89 1008.01 1008.09 1008.17 1008.29 1008.45 1008.61 1008.81 1009.01 1009.21 1009.37 1009.49 1009.61 1009.69 1009.81 1009.93 1010.01 1010.09 1010.25 1010.41 1010.57 1010.73 1010.89 1011.09 1011.29 1011.57 1011.81 1012.01 1012.29 1012.57 1012.85 1013.13 1013.37 1013.57 1013.81 1013.97 1014.13 1014.25 1014.33 1014.45 1014.57 1014.69
1006.13 1006.17 1006.25 1006.29 1006.45 1006.53 1006.61 1006.73 1006.77 1006.85 1006.93 1006.97 1006.97 1006.93 1006.93 1006.97 1007.01 1007.05 1007.05 1007.05 1007.09 1007.17 1007.29 1007.45 1007.57 1007.77 1007.97 1008.13 1008.25 1008.29 1008.41 1008.53 1008.61 1008.77 1008.93 1009.13 1009.29 1009.45 1009.57 1009.73 1009.81 1009.93 1010.01 1010.13 1010.21 1010.33 1010.49 1010.69 1010.81 1011.01 1011.25 1011.41 1011.57 1011.81 1012.09 1012.37 1012.65 1012.93 1013.17 1013.45 1013.65 1013.85 1014.01 1014.21 1014.37 1014.49 1014.61 1014.73 1014.77
1006.69 1006.69 1006.73 1006.77 1006.85 1006.97 1007.01 1007.09 1007.17 1007.21 1007.25 1007.29 1007.33 1007.33 1007.33 1007.37 1007.45 1007.45 1007.45 1007.45 1007.49 1007.57 1007.61 1007.69 1007.85 1008.01 1008.21 1008.33 1008.45 1008.53 1008.61 1008.73 1008.85 1008.93 1009.05 1009.17 1009.33 1009.49 1009.65 1009.77 1009.93 1010.05 1010.13 1010.25 1010.29 1010.41 1010.57 1010.73 1010.93 1011.17 1011.37 1011.53 1011.69 1011.89 1012.13 1012.45 1012.69 1012.97 1013.25 1013.49 1013.73 1013.93 1014.13 1014.29 1014.45 1014.57 1014.73 1014.77 1014.81
1007.17 1007.17 1007.17 1007.21 1007.29 1007.41 1007.45 1007.45 1007.49 1007.53 1007.57 1007.65 1007.65 1007.73 1007.73 1007.77 1007.81 1007.81 1007.81 1007.81 1007.85 1007.85 1007.93 1008.01 1008.13 1008.25 1008.41 1008.53 1008.57 1008.69 1008.77 1008.89 1008.97 1009.05 1009.17 1009.29 1009.41 1009.57 1009.73 1009.85 1010.01 1010.17 1010.29 1010.33 1010.41 1010.49 1010.65 1010.85 1011.05 1011.25 1011.45 1011.57 1011.77 1012.01 1012.29 1012.53 1012.81 1013.09 1013.33 1013.57 1013.81 1014.01 1014.13 1014.33 1014.53 1014.69 1014.77 1014.85 1014.85
1007.65 1007.65 1007.69 1007.73 1007.77 1007.81 1007.85 1007.85 1007.85 1007.85 1007.89 1007.93 1008.01 1008.05 1008.09 1008.13 1008.13 1008.09 1008.09 1008.09 1008.13 1008.13 1008.21 1008.29 1008.37 1008.45 1008.57 1008.69 1008.77 1008.89 1008.97 1009.01 1009.13 1009.25 1009.37 1009.45 1009.53 1009.69 1009.85 1010.01 1010.17 1010.29 1010.41 1010.45 1010.53 1010.65 1010.81 1010.97 1011.17 1011.37 1011.53 1011.73 1011.97 1012.17 1012.45 1012.65 1012.93 1013.21 1013.45 1013.73 1013.93 1014.09 1014.25 1014.45 1014.61 1014.73 1014.85 1014.89 1014.97
1008.09 1008.13 1008.13 1008.13 1008.17 1008.21 1008.25 1008.25 1008.25 1008.25 1008.25 1008.29 1008.33 1008.37 1008.41 1008.41 1008.41 1008.41 1008.41 1008.45 1008.41 1008.45 1008.49 1008.57 1008.65 1008.77 1008.85 1008.89 1009.01 1009.13 1009.21 1009.29 1009.37 1009.49 1009.57 1009.65 1009.77 1009.85 1010.01 1010.25 1010.41 1010.53 1010.57 1010.65 1010.73 1010.85 1011.01 1011.17 1011.29 1011.45 1011.61 1011.85 1012.09 1012.29 1012.57 1012.81 1013.09 1013.37 1013.61 1013.89 1014.09 1014.29 1014.45 1014.61 1014.73 1014.85 1014.97 1015.05 1015.13
1008.45 1008.49 1008.49 1008.53 1008.57 1008.57 1008.57 1008.57 1008.57 1008.57 1008.57 1008.57 1008.61 1008.69 1008.73 1008.73 1008.73 1008.73 1008.73 1008.73 1008.73 1008.73 1008.81 1008.89 1009.01 1009.09 1009.17 1009.25 1009.29 1009.41 1009.49 1009.57 1009.69 1009.77 1009.85 1009.97 1010.05 1010.13 1010.29 1010.45 1010.65 1010.77 1010.85 1010.85 1010.93 1011.01 1011.17 1011.29 1011.45 1011.57 1011.77 1012.01 1012.25 1012.49 1012.73 1012.97 1013.25 1013.53 1013.81 1014.05 1014.29 1014.45 1014.65 1014.81 1014.93 1015.05 1015.17 1015.25 1015.29
1008.85 1008.81 1008.81 1008.85 1008.85 1008.85 1008.89 1008.89 1008.85 1008.89 1008.89 1008.89 1008.97 1009.01 1009.01 1009.01 1009.05 1009.09 1009.09 1009.05 1009.01 1009.05 1009.17 1009.21 1009.29 1009.41 1009.45 1009.57 1009.69 1009.73 1009.81 1009.85 1009.97 1010.05 1010.13 1010.25 1010.33 1010.45 1010.57 1010.73 1010.89 1011.01 1011.09 1011.09 1011.17 1011.25 1011.33 1011.45 1011.57 1011.73 1011.97 1012.17 1012.45 1012.69 1012.89 1013.17 1013.45 1013.73 1013.97 1014.17 1014.45 1014.61 1014.81 1014.93 1015.09 1015.21 1015.33 1015.41 1015.45
1009.13 1009.09 1009.05 1009.09 1009.09 1009.09 1009.13 1009.13 1009.13 1009.17 1009.21 1009.25 1009.29 1009.29 1009.29 1009.33 1009.37 1009.41 1009.41 1009.33 1009.33 1009.41 1009.45 1009.57 1009.61 1009.69 1009.77 1009.85 1010.01 1010.09 1010.13 1010.21 1010.29 1010.33 1010.45 1010.53 1010.57 1010.65 1010.77 1010.93 1011.13 1011.25 1011.29 1011.29 1011.37 1011.45 1011.57 1011.69 1011.81 1011.93 1012.13 1012.37 1012.61 1012.85 1013.05 1013.29 1013.57 1013.85 1014.09 1014.33 1014.57 1014.77 1014.93 1015.05 1015.17 1015.29 1015.45 1015.49 1015.53
1009.41 1009.33 1009.29 1009.29 1009.29 1009.29 1009.33 1009.33 1009.37 1009.41 1009.45 1009.53 1009.57 1009.57 1009.57 1009.57 1009.61 1009.65 1009.65 1009.65 1009.65 1009.69 1009.77 1009.85 1009.97 1010.01 1010.09 1010.13 1010.25 1010.33 1010.45 1010.45 1010.53 1010.57 1010.65 1010.73 1010.77 1010.81 1010.89 1011.09 1011.29 1011.45 1011.53 1011.57 1011.65 1011.73 1011.85 1011.89 1012.05 1012.13 1012.29 1012.53 1012.73 1012.97 1013.21 1013.45 1013.73 1014.01 1014.25 1014.45 1014.69 1014.85 1015.01 1015.17 1015.29 1015.37 1015.49 1015.57 1015.57
1009.65 1009.57 1009.53 1009.49 1009.49 1009.49 1009.53 1009.53 1009.57 1009.65 1009.73 1009.73 1009.81 1009.85 1009.85 1009.85 1009.85 1009.89 1009.93 1009.93 1009.97 1010.01 1010.05 1010.13 1010.25 1010.29 1010.33 1010.33 1010.45 1010.53 1010.61 1010.69 1010.73 1010.77 1010.85 1010.85 1010.93 1010.97 1011.05 1011.25 1011.45 1011.61 1011.73 1011.85 1011.89 1011.97 1012.05 1012.17 1012.29 1012.41 1012.53 1012.73 1012.93 1013.13 1013.33 1013.57 1013.85 1014.13 1014.33 1014.53 1014.73 1014.97 1015.13 1015.25 1015.33 1015.45 1015.53 1015.57 1015.57
1009.89 1009.81 1009.73 1009.73 1009.69 1009.73 1009.73 1009.77 1009.81 1009.85 1009.93 1009.93 1009.97 1010.01 1010.05 1010.05 1010.09 1010.13 1010.17 1010.25 1010.29 1010.29 1010.33 1010.41 1010.45 1010.53 1010.57 1010.57 1010.57 1010.69 1010.81 1010.89 1010.97 1011.01 1011.01 1011.09 1011.09 1011.17 1011.25 1011.41 1011.61 1011.81 1011.97 1012.01 1012.13 1012.17 1012.25 1012.37 1012.49 1012.65 1012.85 1013.01 1013.17 1013.29 1013.45 1013.69 1013.93 1014.17 1014.41 1014.61 1014.81 1015.01 1015.21 1015.33 1015.45 1015.53 1015.57 1015.61 1015.65
1010.21 1010.13 1010.05 1010.01 1009.97 1009.97 1010.01 1010.01 1010.09 1010.13 1010.13 1010.13 1010.17 1010.21 1010.25 1010.29 1010.29 1010.37 1010.45 1010.53 1010.57 1010.57 1010.57 1010.61 1010.65 1010.69 1010.73 1010.77 1010.85 1010.89 1011.01 1011.13 1011.21 1011.25 1011.29 1011.29 1011.29 1011.29 1011.41 1011.57 1011.73 1011.97 1012.13 1012.21 1012.29 1012.33 1012.45 1012.57 1012.73 1012.93 1013.13 1013.25 1013.33 1013.45 1013.57 1013.73 1013.97 1014.21 1014.45 1014.65 1014.85 1015.01 1015.21 1015.41 1015.53 1015.57 1015.65 1015.73 1015.73
Wind_Speed
12 11 9 9 9 8 7 6 6 7 7 7 7 8 8 9 9 8 8 8 8 8 7 6 6 6 8 12 13 14 13 12 12 12 12 12 10 10 10 10 10 10 10 10 10 10 9 9 8 7 5 5 6 6 6 5 6 7 7 7 7 7 8 9 8 8 8 8 6
14 13 10 9 9 8 7 6 6 6 7 7 8 8 8 9 9 9 9 10 9 10 9 8 8 8 9 11 12 13 12 11 12 12 12 12 12 11 11 10 11 11 11 11 11 10 9 10 9 7 6 5 6 6 6 5 7 8 8 8 7 6 7 7 8 8 8 8 6
15 13 11 10 10 9 7 7 7 7 8 7 7 7 7 8 8 9 9 10 10 10 11 10 11 12 13 13 12 12 12 11 12 11 11 11 12 12 12 11 11 11 11 11 11 10 9 10 9 8 7 6 7 7 6 6 6 7 8 8 6 5 5 5 6 6 6 6 6
15 14 13 11 12 12 10 8 8 9 8 7 6 6 6 6 6 7 8 9 10 10 10 11 12 14 15 15 15 14 13 12 13 12 12 11 12 12 12 12 12 12 12 11 11 11 10 10 8 7 7 8 9 8 7 6 6 6 6 6 5 5 5 5 5 4 4 5 5
15 14 13 12 13 13 11 9 10 9 8 6 6 6 6 5 5 6 7 8 9 9 10 12 12 12 13 15 16 16 15 14 14 13 12 12 12 12 12 12 12 12 11 11 12 12 11 10 7 6 7 8 7 7 8 8 8 7 6 4 4 4 4 4 4 4 4 4 4
15 14 13 12 13 12 10 9 10 9 8 6 7 7 6 5 6 6 7 8 8 9 11 12 11 11 12 14 15 15 15 14 13 12 12 12 12 11 12 12 12 11 10 11 11 12 11 10 7 5 6 6 6 7 8 9 8 7 6 5 4 4 4 5 4 4 4 4 5
14 14 13 12 13 12 10 9 9 8 8 7 8 9 8 7 7 8 8 8 8 9 9 9 10 11 12 13 13 13 13 12 12 12 13 12 12 12 12 11 11 11 10 10 11 10 10 9 7 6 5 5 5 6 8 8 8 8 7 6 4 4 4 5 4 4 5 7 7
14 14 13 13 13 13 12 11 10 9 8 7 9 10 10 9 9 9 9 8 8 8 8 8 10 12 12 12 12 12 12 13 12 12 12 12 13 12 12 12 11 11 10 10 10 9 9 7 6 6 6 5 5 6 7 8 9 9 8 7 5 4 4 4 4 5 6 8 8
13 13 13 13 13 13 12 11 11 11 10 9 10 10 11 11 11 10 10 9 8 8 9 9 11 13 13 13 13 13 12 12 13 12 12 12 13 13 12 11 11 11 10 9 9 9 8 6 5 5 5 5 5 6 7 8 9 9 8 7 6 5 4 4 5 5 6 7 8
13 13 13 12 12 12 12 11 11 12 12 11 11 11 11 11 11 10 9 8 9 9 10 10 12 13 14 14 13 13 12 12 12 12 13 12 13 13 12 11 11 10 9 8 7 7 7 6 6 5 5 5 6 7 7 8 9 9 8 5 6 6 6 5 5 6 6 7 7
13 12 12 12 12 12 11 10 10 10 11 11 11 11 11 11 11 10 9 9 10 11 12 12 13 14 14 13 13 12 12 11 11 12 12 12 12 12 11 10 10 10 9 8 7 6 5 5 6 6 6 6 7 7 8 8 9 9 8 5 6 7 7 5 6 6 6 7 7
12 12 12 11 12 12 11 9 9 9 10 12 12 12 11 10 10 10 10 11 11 12 12 13 14 14 13 12 12 11 11 11 11 11 11 11 11 10 10 10 10 9 9 9 7 6 5 5 6 7 7 6 6 6 7 9 9 9 8 7 7 7 7 6 6 6 6 7 7
13 12 12 11 12 12 11 10 8 8 10 11 11 11 10 9 10 10 11 11 11 10 10 11 13 13 12 11 11 11 10 11 11 11 11 11 10 10 9 9 9 10 9 9 8 7 6 6 7 8 8 7 6 6 7 9 9 9 9 8 8 7 7 7 7 6 6 7 7
13 13 13 12 12 12 11 11 10 9 9 10 10 9 9 8 8 9 9 10 10 9 9 9 10 10 10 11 11 11 10 10 11 11 11 10 10 10 9 9 9 10 10 9 9 8 8 8 8 9 9 8 8 8 8 9 9 10 10 9 9 8 8 7 7 7 7 7 8
13 13 13 13 13 12 11 11 10 10 10 9 9 8 8 7 7 7 8 8 8 8 8 8 7 7 8 9 10 10 10 10 10 10 11 10 10 10 10 9 10 10 10 9 9 10 11 11 11 10 10 10 10 9 9 9 10 10 10 10 9 9 8 8 7 7 8 8 8
13 13 13 14 14 12 11 9 8 9 10 10 9 9 8 7 7 7 8 8 7 7 7 7 7 7 7 7 8 9 9 9 10 10 11 10 10 10 10 10 11 11 11 10 10 10 11 11 11 11 11 11 11 10 10 10 10 10 10 10 9 9 9 9 8 8 8 8 8
12 12 12 13 13 12 10 8 7 8 9 10 10 10 9 7 7 7 8 8 7 7 7 7 7 7 7 7 8 8 9 9 9 10 10 10 10 10 10 11 11 12 11 10 9 9 9 9 9 10 10 11 10 10 10 10 10 9 9 9 9 9 9 9 9 9 9 9 9
11 10 10 11 12 12 11 9 8 9 10 10 10 9 8 7 7 7 7 7 7 8 8 8 8 8 8 9 8 8 8 8 9 9 9 9 9 9 10 11 11 11 11 9 8 8 8 8 8 8 8 8 8 8 8 9 9 9 8 8 8 8 9 9 9 9 9 9 9
10 9 9 10 11 11 11 10 10 10 10 10 9 9 8 8 8 8 8 8 8 8 9 8 9 9 9 10 9 9 8 8 9 9 9 9 9 9 9 10 11 11 10 8 8 8 8 8 8 8 7 7 6 6 6 7 7 8 8 8 7 7 7 8 7 7 7 8 8
9 8 8 9 10 11 10 10 10 10 10 10 9 9 9 9 9 9 9 9 9 9 10 10 10 10 10 11 10 9 9 8 9 9 9 9 9 9 10 10 10 10 10 9 9 9 9 9 8 8 8 8 7 7 6 6 6 7 7 7 7 7 7 7 7 6 6 6 6
7 7 7 7 8 9 9 10 10 10 10 10 9 9 9 9 9 9 9 8 9 10 10 11 11 11 12 12 12 11 10 8 9 9 9 9 10 11 11 11 10 9 9 9 9 9 10 9 9 9 8 8 8 8 7 7 7 7 7 6 6 7 7 7 7 7 6 6 6
10 9 9 8 7 7 7 8 9 10 10 9 9 8 8 8 8 8 7 7 7 8 9 10 10 11 12 12 12 12 10 8 9 9 9 8 9 10 10 10 10 10 9 9 9 9 9 9 9 9 9 9 9 9 9 8 8 8 7 7 7 8 8 8 8 8 8 8 7
11 11 10 10 10 9 8 7 7 8 9 10 9 9 8 7 7 7 7 7 6 6 6 6 7 8 9 10 11 10 10 8 8 8 8 8 9 9 9 9 10 11 10 9 9 9 9 9 9 9 9 9 9 9 9 9 9 9 8 8 8 8 8 8 9 9 9 9 8
12 11 10 10 11 11 10 9 8 7 7 8 9 9 9 8 8 8 8 8 7 7 6 5 4 5 6 7 8 8 9 8 8 7 7 8 8 9 9 9 10 10 10 9 9 9 9 8 8 8 8 8 8 9 9 9 9 9 9 10 9 8 8 8 9 9 10 10 9
13 12 12 11 11 11 11 11 10 9 7 6 6 7 8 8 8 8 8 8 8 8 8 7 6 5 5 6 6 7 8 8 8 8 7 7 7 8 8 8 8 8 7 7 9 10 10 9 8 7 7 7 7 7 7 7 8 9 9 10 10 9 9 8 8 9 9 9 9
13 12 12 11 11 11 11 11 10 10 9 8 7 6 6 6 7 8 8 8 8 8 8 8 7 6 5 5 6 7 7 7 7 8 8 7 7 7 7 6 5 5 5 7 10 12 12 11 10 8 7 7 7 7 7 6 7 8 8 9 10 10 10 9 8 8 8 8 8
12 12 11 11 11 11 11 10 10 10 9 9 8 7 6 6 6 7 8 8 7 7 7 8 7 6 5 5 6 7 7 6 7 7 7 7 7 7 6 5 4 4 5 9 12 13 13 13 12 11 10 8 8 8 7 7 7 7 8 8 8 8 9 9 9 8 8 7 8
12 11 11 12 12 11 11 10 10 10 9 9 8 8 7 7 7 8 8 7 7 7 6 6 6 5 4 4 5 6 7 7 7 7 7 7 7 7 6 5 4 5 7 11 13 14 14 14 14 13 12 10 9 8 8 8 8 7 7 6 6 7 7 7 7 8 8 8 7
12 12 12 12 12 11 11 10 10 9 8 8 8 8 8 8 8 8 8 8 8 7 6 5 4 4 4 5 5 6 6 7 7 7 8 8 8 7 7 6 6 7 10 13 15 15 16 16 15 15 14 12 9 7 7 8 7 7 6 6 6 6 6 5 5 6 7 7 7
11 11 12 12 11 11 11 10 9 9 8 7 8 8 8 8 8 8 8 8 7 6 5 5 5 5 6 5 5 6 6 6 7 7 8 9 9 8 8 7 7 9 12 15 16 17 17 17 17 16 15 14 11 8 7 7 7 7 6 6 6 6 6 6 6 6 6 6 7
11 11 11 11 11 11 10 9 9 9 8 8 8 8 8 8 8 8 7 6 6 6 6 6 7 7 6 5 5 5 6 6 6 7 8 9 9 9 9 9 9 10 13 16 17 18 18 18 17 17 16 14 11 9 7 7 7 6 6 6 7 7 7 6 6 7 7 7 7
11 11 11 11 11 10 10 9 9 9 9 9 9 9 9 8 8 7 6 6 6 6 7 7 8 7 7 6 5 5 6 6 6 7 8 8 9 10 10 10 9 11 13 17 18 18 18 18 18 17 16 15 11 9 8 8 7 7 7 7 7 7 7 6 6 6 7 7 7
11 11 11 11 10 10 9 9 9 9 9 9 9 9 9 8 7 7 7 6 6 7 7 7 7 7 7 6 6 6 6 6 6 7 8 8 9 10 10 9 9 10 13 17 18 18 18 18 18 17 16 15 11 9 8 8 7 6 6 6 6 6 6 6 6 6 6 6 6
10 10 10 10 10 9 9 9 9 9 9 9 9 9 8 8 8 7 7 6 6 6 7 6 6 6 6 5 6 6 6 6 6 7 8 8 9 10 9 8 7 9 13 17 17 18 18 18 18 17 16 14 11 9 8 9 7 7 7 6 6 6 5 5 5 5 5 5 5
10 10 10 9 9 9 9 8 8 9 9 9 9 9 8 8 8 7 6 6 6 7 7 6 6 6 6 6 6 6 7 7 7 7 7 8 9 9 9 8 8 11 14 16 17 17 17 17 17 17 15 12 9 8 8 9 8 8 8 7 6 6 5 5 5 4 4 4 5
9 9 9 9 9 9 8 8 8 9 9 9 8 8 8 8 7 6 6 6 6 7 7 6 6 6 6 6 6 6 6 7 7 7 7 8 9 10 10 9 10 11 14 15 16 16 17 17 17 16 14 10 8 7 7 8 7 8 8 8 7 6 6 5 5 4 4 4 4
8 8 8 8 8 8 8 8 8 9 9 8 8 8 7 7 6 6 5 5 6 7 6 6 6 6 6 6 6 6 6 6 6 7 7 7 8 10 10 10 10 11 13 14 15 15 15 16 16 14 12 9 7 7 7 7 6 7 7 7 7 6 5 5 4 4 4 4 4
8 8 8 8 8 8 8 8 8 8 8 8 7 7 6 6 6 5 5 5 6 6 6 6 6 6 6 6 6 6 6 6 6 6 7 7 8 9 10 10 10 10 11 13 14 14 14 15 14 13 11 8 7 7 7 6 6 6 6 6 6 5 4 4 4 4 4 4 6
7 7 7 7 7 7 7 8 8 8 7 7 6 6 6 5 5 4 4 4 5 5 5 6 6 6 6 6 6 6 6 6 6 6 7 7 8 9 10 10 9 9 10 12 13 14 14 14 13 12 11 8 7 6 6 6 6 6 6 6 5 4 4 4 3 3 4 4 7
7 7 7 7 7 7 7 7 7 6 6 6 6 6 5 5 5 5 4 4 4 5 5 5 6 6 6 6 6 7 6 6 6 6 6 7 8 9 10 10 9 9 10 12 13 13 13 13 13 12 10 7 6 5 6 6 7 7 6 5 5 4 4 3 3 3 3 4 6
7 7 7 7 7 7 7 7 6 6 6 6 6 5 4 4 4 5 5 4 4 4 4 5 6 6 6 6 6 6 6 6 5 5 5 6 8 8 9 9 9 9 9 10 12 13 13 13 12 11 9 6 5 5 5 6 7 7 6 5 5 4 4 3 3 3 3 3 3
Wind_Direction
177 177 176 171 171 173 173 171 168 169 171 170 169 166 163 160 160 161 160 158 158 160 164 166 164 161 161 163 167 172 176 179 177 177 179 183 183 179 175 173 172 171 170 167 165 163 161 159 156 156 157 158 156 155 155 154 152 151 151 152 156 158 159 160 162 162 162 162 162
179 178 174 168 168 169 171 171 172 174 175 176 175 173 170 166 165 164 164 164 162 161 161 164 167 168 168 167 168 169 172 176 176 176 176 178 178 176 174 173 172 171 169 166 164 162 161 159 156 155 154 154 152 152 153 154 151 148 147 149 152 155 156 157 159 158 157 157 156
179 178 174 168 169 170 172 174 177 178 179 180 180 177 175 172 170 168 167 167 164 161 160 161 165 168 170 170 170 170 171 174 176 176 177 177 175 174 172 171 171 170 168 165 164 162 160 159 157 155 155 156 154 153 152 152 149 147 147 149 150 152 153 154 155 153 152 153 154
178 178 175 170 171 172 174 176 178 178 179 179 179 178 177 176 173 170 167 165 163 162 162 162 164 166 169 170 170 170 171 174 176 176 176 175 173 171 169 167 167 167 166 164 163 161 160 159 157 156 156 156 155 154 154 153 149 146 145 148 147 148 150 152 152 151 150 152 154
177 178 176 172 172 172 172 174 176 176 176 173 172 174 174 174 172 168 165 163 165 165 164 161 161 163 166 167 167 168 169 172 173 174 173 170 168 166 165 163 164 164 164 163 161 159 158 156 154 154 156 157 157 156 154 152 147 142 139 138 141 144 147 149 151 151 150 150 152
174 175 175 171 168 167 167 170 172 171 169 166 166 168 169 169 167 166 164 164 162 159 157 156 157 158 160 163 164 164 165 168 169 168 166 163 162 160 159 159 159 159 159 159 158 156 154 152 149 149 152 152 151 151 151 149 145 140 137 135 138 141 144 150 154 154 151 150 151
169 169 168 164 161 159 159 162 163 163 161 160 163 165 165 164 162 161 159 155 151 151 152 153 155 155 156 158 159 160 161 162 162 161 159 157 156 156 155 154 153 153 154 155 154 153 151 147 145 145 146 146 146 148 150 149 144 141 138 139 141 143 147 153 155 155 155 156 156
164 162 159 155 154 153 153 154 155 156 158 160 163 163 161 159 157 154 151 146 147 149 151 152 154 153 153 153 154 154 155 155 156 156 155 152 152 151 150 149 149 149 150 149 148 147 146 143 142 143 145 144 144 147 147 145 140 138 138 140 141 144 149 153 155 156 158 160 161
164 159 154 149 147 147 147 148 152 154 157 159 160 159 158 156 154 151 149 147 149 150 151 151 151 150 149 149 150 151 152 152 152 151 151 149 148 146 145 144 145 145 145 145 143 140 138 134 136 139 141 142 142 143 142 138 134 134 135 137 138 142 147 151 156 158 160 162 163
163 158 152 148 145 143 141 141 148 152 154 154 154 154 153 152 152 152 151 149 148 149 151 152 151 149 149 149 150 151 151 151 150 149 148 147 145 144 142 140 140 140 140 142 141 140 136 130 130 131 134 134 135 135 133 131 129 129 131 133 136 139 144 152 158 161 162 164 164
160 157 154 151 148 144 140 138 144 149 151 150 149 148 148 148 150 150 149 146 148 152 154 153 151 150 150 150 151 152 152 152 151 150 150 150 149 147 145 143 141 141 141 141 143 145 146 141 132 132 134 133 132 130 127 125 125 125 127 130 134 138 143 151 157 161 162 162 159
159 158 157 156 154 151 147 147 147 148 148 147 145 144 143 143 144 144 144 145 149 151 153 152 152 151 150 150 151 151 152 153 153 154 154 155 154 153 152 151 150 149 148 148 147 148 148 146 138 136 137 138 137 133 130 128 126 126 128 132 136 140 146 151 155 158 158 157 152
160 161 161 161 161 161 163 167 164 156 148 145 144 142 141 138 138 138 140 143 145 148 149 150 150 149 148 148 148 149 150 152 155 156 157 158 158 158 158 159 159 160 159 159 157 155 152 148 143 140 138 140 142 142 139 136 133 133 135 138 142 146 149 152 153 153 151 151 148
160 162 165 167 169 172 176 183 182 173 159 149 146 143 141 140 141 140 140 140 141 143 145 145 145 145 145 145 145 145 146 149 153 156 157 158 158 159 161 163 164 165 166 166 165 165 163 161 158 154 151 151 153 152 150 145 142 142 143 146 149 151 152 152 151 149 147 147 146
160 165 170 174 176 178 180 183 184 181 173 162 154 150 149 151 155 153 149 144 144 144 143 141 141 142 144 144 144 144 146 150 157 162 164 162 160 161 163 164 166 167 167 167 167 169 170 170 170 169 168 165 164 162 159 154 150 148 149 152 154 154 153 152 151 150 148 147 146
165 170 174 177 176 174 172 172 173 175 176 174 166 161 159 162 165 165 162 157 156 155 153 149 147 150 153 154 150 151 155 162 169 172 172 169 167 166 167 167 168 167 166 164 163 165 167 170 172 176 178 177 172 168 165 160 155 153 154 156 157 157 156 156 155 154 152 150 151
167 169 168 167 164 162 159 156 156 163 169 172 169 166 165 165 165 165 165 163 161 161 162 161 158 159 162 167 164 163 166 173 175 175 172 170 171 172 172 172 171 168 164 158 156 156 158 162 169 178 184 185 179 172 166 161 156 155 156 159 162 162 162 161 161 161 160 160 160
158 156 152 149 149 150 150 148 147 151 156 161 163 164 165 164 162 161 161 159 158 158 159 161 163 164 165 167 168 170 173 177 176 174 171 169 172 174 175 176 177 175 168 157 152 150 150 152 161 171 180 183 177 170 164 158 153 152 154 158 162 163 163 164 166 166 168 171 169
145 143 140 138 139 141 143 144 142 143 145 149 155 161 164 163 160 158 157 157 158 158 158 158 165 169 170 168 168 171 175 179 178 176 175 175 177 178 179 181 184 182 176 161 154 150 148 148 153 159 164 165 162 159 154 149 147 147 148 151 154 156 157 159 161 164 168 172 169
135 133 132 132 134 136 138 139 137 136 137 142 150 157 162 163 161 159 156 155 157 158 158 158 164 168 171 172 173 176 179 183 183 182 181 182 185 187 186 184 181 178 173 164 157 153 151 150 152 153 153 151 149 146 143 140 139 140 142 143 144 146 146 146 145 147 149 154 155
100 96 97 103 116 126 132 133 130 130 131 136 144 150 155 157 159 158 156 152 152 154 156 158 162 165 168 171 175 178 181 183 185 184 183 183 189 193 193 188 178 172 170 167 163 159 157 157 156 154 152 149 148 146 144 141 140 139 139 139 140 140 139 137 134 132 132 133 135
68 65 63 63 70 86 105 120 126 128 130 133 135 136 137 139 141 142 141 139 142 146 151 156 161 164 167 169 172 174 176 177 179 180 179 178 183 188 189 187 183 180 178 175 172 168 165 163 161 158 155 153 152 150 149 147 145 143 141 138 137 136 136 135 134 132 131 129 128
65 64 62 60 57 56 62 79 105 120 127 129 127 124 121 120 120 119 119 119 122 126 131 139 149 157 162 165 167 167 166 166 169 170 170 169 169 170 171 174 178 180 182 180 177 173 170 167 164 161 159 156 155 153 152 151 149 146 142 139 137 135 135 137 137 136 134 133 131
62 62 61 61 58 56 54 53 62 78 99 114 119 120 118 116 113 111 109 108 107 106 106 107 116 128 138 146 151 153 154 155 156 158 159 160 159 160 162 166 173 177 179 179 176 174 171 168 165 162 159 155 153 152 151 151 149 147 143 141 139 137 137 138 139 139 138 137 135
58 59 59 60 59 59 57 55 52 51 55 68 91 106 114 117 115 113 110 108 107 106 105 102 100 104 112 121 128 134 139 143 145 146 148 151 154 157 161 165 169 171 170 167 163 163 163 163 161 158 153 148 144 142 141 142 144 144 144 143 142 141 140 141 141 141 140 138 137
58 58 58 59 61 61 60 59 57 54 50 48 55 70 89 105 110 111 110 110 111 112 112 108 104 104 109 117 122 125 130 134 138 140 142 146 149 152 153 153 154 154 153 150 150 151 151 151 149 147 143 138 135 132 131 130 132 136 139 142 144 144 144 144 143 141 138 135 133
57 58 58 59 60 59 59 60 60 58 55 52 51 54 61 75 91 100 105 107 110 111 109 107 107 108 111 115 121 125 129 130 133 135 138 139 138 137 134 129 130 133 138 140 141 142 142 142 140 138 135 132 131 131 129 126 124 126 129 134 139 142 143 144 143 140 136 130 128
53 55 56 57 57 56 55 55 56 57 57 56 55 56 58 64 74 85 94 99 99 98 97 98 102 103 105 107 117 125 129 130 131 131 129 128 125 123 121 118 120 124 130 134 134 135 135 135 134 132 130 127 127 126 125 123 122 121 121 123 127 130 134 137 137 135 132 129 127
50 53 55 55 55 54 53 52 53 53 54 56 58 59 61 62 66 71 78 85 86 88 90 92 93 94 97 105 112 117 121 125 127 126 124 122 120 118 118 118 120 124 128 131 130 130 130 130 129 127 126 124 124 124 123 122 121 120 119 119 121 123 125 126 128 129 129 129 127
49 52 55 56 55 54 54 53 53 53 54 54 55 57 59 60 59 60 63 69 74 79 85 90 90 93 98 106 110 112 115 119 122 123 124 124 122 122 121 122 124 127 129 131 129 127 127 126 124 123 122 121 120 119 119 119 119 120 120 121 123 125 126 126 128 130 132 132 127
49 52 55 56 56 55 54 54 55 55 56 56 55 56 57 58 57 56 57 60 65 72 79 86 90 94 97 101 105 109 113 117 120 123 125 125 124 124 123 123 125 127 129 130 128 126 124 123 122 122 121 120 117 116 116 116 116 118 121 124 127 129 130 131 134 137 138 137 132
49 51 54 56 55 54 54 54 55 57 58 58 58 58 58 58 58 58 58 60 65 71 76 82 88 91 93 93 95 99 104 109 115 119 122 123 123 122 121 121 123 126 127 128 126 124 123 122 122 121 120 117 113 111 110 111 110 111 113 118 123 127 130 134 138 142 143 142 137
49 51 53 55 54 54 54 54 56 58 59 60 60 59 59 60 60 59 59 60 63 67 70 75 80 84 87 89 90 91 94 100 106 111 115 118 119 118 117 117 119 123 125 126 124 123 122 122 121 119 117 114 110 108 107 107 106 105 106 109 112 117 122 128 135 141 143 142 139
49 51 53 54 54 54 54 55 57 59 61 62 61 59 59 59 59 58 58 58 60 62 64 66 70 74 79 83 87 90 93 96 100 105 110 113 113 112 112 112 114 120 123 124 123 122 121 120 119 116 114 111 108 106 106 105 104 105 105 106 107 109 114 121 128 133 136 136 135
49 52 54 54 54 54 54 55 57 59 61 62 61 60 58 57 57 57 58 60 63 64 64 64 66 69 72 74 79 85 91 96 98 102 106 109 109 109 108 108 110 115 119 120 119 119 119 118 116 114 112 109 107 106 107 106 107 108 110 111 110 111 112 116 120 123 126 128 130
48 52 55 56 55 55 55 56 57 58 59 60 60 60 59 57 55 55 58 63 67 68 69 68 70 72 73 74 76 82 88 96 99 101 104 107 108 108 107 106 107 111 113 115 115 116 116 116 115 113 111 108 107 107 108 109 110 112 114 114 115 116 117 117 118 119 121 123 127
47 52 56 57 57 56 56 57 58 58 57 56 57 58 58 58 56 54 56 63 69 71 71 71 72 74 76 79 80 81 85 91 97 100 104 106 109 109 108 106 105 106 108 110 112 113 114 115 115 113 111 108 109 109 110 110 112 114 115 116 116 117 117 117 117 117 119 121 125
44 49 55 58 59 58 58 59 60 60 59 56 55 55 56 58 56 54 54 60 70 74 76 75 74 76 78 83 84 82 81 83 91 98 102 105 108 109 108 106 104 104 106 109 111 112 114 115 115 114 113 112 114 115 115 115 117 118 119 118 116 112 110 108 111 114 117 121 125
36 43 50 56 58 60 60 61 62 63 63 62 59 57 56 57 56 55 53 57 68 76 81 82 80 80 81 83 85 83 79 77 83 91 99 104 107 107 107 107 106 105 107 111 112 113 114 115 115 115 114 113 116 118 120 121 121 121 121 120 116 110 102 97 101 107 114 120 126
28 33 39 47 51 55 58 59 59 60 62 65 64 63 61 60 61 59 58 59 67 75 83 87 86 85 84 83 85 83 80 75 74 83 94 103 105 106 106 108 108 108 110 113 114 114 114 115 115 115 114 112 116 120 123 125 124 124 123 123 121 117 107 97 95 101 108 115 124
23 26 30 34 39 44 49 53 52 53 54 58 61 62 62 64 64 65 65 65 69 76 83 88 89 88 86 85 85 84 81 76 72 78 90 101 105 107 107 110 111 111 112 114 114 114 115 115 117 118 118 116 117 120 124 126 127 128 129 129 127 125 120 111 102 98 99 104 116